SCP
0 0 0 0 0 0 0 0 0 0 0 0 0 0 0 0 0 0 0 0 0 0 0 0 0 0 0 0 0 0 0 0 0 0 0 0 0 0
0 0 0 0 0 0 0 0 0 0 0 0 0 0 0 0 0 0 0 0 0 0 0 0 0 0 0 0 0 0 0 0 0 0 0 0 0 0
0 0 0 0 0 0 0 0 0 0 0 0 0 0 0 0 0 0 0 0 0 0 0 0 0 0 0 0 0 0 0 0 0 0 0 0 0 0
0 0 0 0 0 0 0 0 0 0 0 0 0 0 0 0 0 0 0 0 0 0 0 0 0 0 0 0 0 0 0 0 0 0 0 0 0 0
0 0 0 0 0 0 0 0 0 0 0 0 0 0 0 0 0 0 0 0 0 0 0 0 0 0 0 0 0 0 0 0 0 0 0 0 0 0
0 0 0 0 0 0 0 0 0 0 0 0 0 0 0 0 0 0 0 0 0 0 0 0 0 0 0 0 0 0 0 0 0 0 0 0 0 0
0 0 0 0 0 0 0 0 0 0 0 0 0 0 0 0 0 0 0 0 0 0 0 0 0 0 0 0 0 0 0 0 0 0 0 -0 -0 -0
0 0 0 0 0 0 0 0 0 0 0 0 0 0 0 0 0 0 0 0 0 0 0 0 0 0 0 0 0 0 0 0 0 0 0 0 0 0
0 0 0 0 0 0 0 0 0 0 0 0 0 0 0 0 0 0 0 0 0 0 0 0 0 0 0 0 0 0 0 0 0 0 0 0 0 0
0 0 0 0 0 0 0 0 0 0 0 0 0 0 0 0 0 0 0 0 0 0 0 0 0 0 0 0 0 0 0 0 0 0 0 0 0 0
0 0 0 0 0 0 0 0 0 0 0 0 0 0 0 0 0 0 0 0 0 0 0 0 0 0 0 0 0 0 0 0 0 0 0 0 0 0
0 0 0 0 0 0 0 0 0 0 0 0 0 0 0 0 0 0 0 0 0 0 0 0 0 0 0 0 0 0 0 0 0 0 0 0 0 0
0 0 0 0 0 0 0 0 0 0 0 0 0 0 0 0 0 0 0 0 0 0 0 0 0 0 0 0 0 0 0 0 0 0 0 0 0 0
0 0 0 0 0 0 0 0 0 0 0 0 0 0 0 0 0 0 0 0 0 0 0 0 0 0 0 0 0 0 0 0 0 0 0 0 0 0
0 0 0 0 0 0 0 0 0 0 0 0 0 0 0 0 0 0 0 0 0 0 0 0 0 0 0 0 0 0 0 0 0 0 0 0 0 0
0 0 0 0 0 0 0 0 0 0 0 0 0 -0 0 0 0 0 0 0 0 0 0 0 0 0 0 0 0 0 0 0 0 0 0 0 0 0
0 0 0 0 0 0 0 0 0 0 0 0 0 -0 0 0 0 0 0 0 0 0 0 0 0 0 0 0 0 0 0 0 0 0 0 0 0 0
0 0 0 0 0 0 0 0 0 0 0 0 0 0 0 0 0 0 0 0 0 0 0 0 0 0 0 0 0 0 0 0 0 0 0 0 0 0
0 0 0 0 0 0 0 0 0 0 0 0 0 0 0 0 0 0 0 0 0 0 0 0 0 0 0 0 0 0 0 0 0 0 0 0 0 0
0 0 0 0 0 0 0 0 0 0 0 0 0 0 0 0 0 0 0 0 0 0 0 0 0 0 0 0 0 0 0 0 0 0 0 0 0 0
0 0 0 0 0 0 0 0 0 0 0 0 0 0 0 0 0 0 0 0 0 0 0 0 0 0 0 0 0 0 0 0 0 0 0 0 0 0
0 0 0 0 0 0 0 0 0 0 0 0 0 0 0 0 0 0 0 0 0 0 0 0 0 0 0 0 0 0 0 0 0 0 0 0 0 0
0 0 0 0 0 0 0 0 0 0 0 0 0 0 0 0 0 0 0 0 0 0 0 0 0 0 0 0 0 0 0 0 0 0 0 0 0 0
Wind_Speed
4 5 3 3 3 2 2 1 1 2 2 2 2 2 1 1 2 1 1 2 2 2 3 3 2 1 5 10 14 19 23 25 26 25 24 23 22 21
3 4 4 3 2 2 2 2 1 2 2 2 3 3 3 3 2 1 1 1 0 1 2 3 4 5 9 13 17 20 22 23 23 22 20 18 16 16
4 4 5 4 3 3 3 3 2 2 4 4 3 3 3 3 1 1 1 1 1 2 3 5 6 9 11 14 17 19 21 21 21 19 17 16 15 14
5 5 5 4 5 3 3 3 3 3 3 5 3 3 3 2 2 3 2 2 1 3 5 6 8 10 12 14 16 17 18 18 17 16 15 14 14 14
6 6 6 6 6 5 5 4 3 3 3 3 4 2 2 0 1 2 2 1 2 3 5 6 7 9 11 13 14 15 15 15 15 15 14 14 14 14
7 6 6 6 6 6 5 6 5 5 4 3 3 2 2 1 1 1 2 2 2 3 3 4 6 8 9 11 12 13 14 14 14 14 14 14 14 14
7 7 8 10 10 7 5 6 6 5 5 5 4 3 3 3 1 0 2 2 2 2 3 3 4 5 6 8 10 12 13 13 13 13 14 14 14 14
7 7 7 10 11 11 11 10 10 8 7 6 6 6 7 5 3 1 1 2 2 2 3 3 4 6 6 7 10 12 13 13 14 14 14 14 14 14
8 7 8 9 10 8 8 10 11 11 9 5 6 6 6 7 6 4 2 1 0 1 2 2 3 4 5 6 11 14 15 15 16 16 16 16 16 16
7 7 7 8 10 8 7 9 9 9 9 6 5 5 5 6 5 4 3 2 2 2 2 1 1 2 2 4 8 12 13 14 15 15 16 16 16 16
6 7 8 8 11 11 9 8 9 8 8 10 9 9 10 12 9 5 6 4 3 3 3 1 1 1 1 2 3 7 9 10 11 13 14 14 14 14
5 6 9 10 10 10 7 6 7 6 8 10 10 11 10 10 12 7 5 4 2 2 3 2 1 1 1 1 1 2 3 5 7 8 9 10 10 8
4 5 6 10 10 9 7 5 4 4 5 7 7 8 8 9 9 8 5 3 2 1 2 1 1 1 1 2 2 1 2 2 3 4 5 7 8 8
3 3 4 8 9 10 7 8 8 6 5 7 7 8 8 8 8 8 8 5 3 2 3 2 1 1 1 2 2 2 1 2 3 3 3 3 5 8
2 4 5 7 7 7 10 10 8 6 6 6 6 6 5 6 7 6 8 6 5 5 5 3 2 2 1 2 2 2 2 1 1 2 2 2 2 3
3 4 6 7 7 6 6 6 5 5 4 4 3 4 4 6 6 6 6 7 5 5 6 6 5 3 2 2 2 2 1 1 1 0 1 1 1 1
2 3 4 4 4 4 4 4 4 4 4 4 4 4 5 6 6 6 5 5 5 6 7 6 6 4 2 2 2 2 2 1 1 0 1 2 2 2
3 2 2 2 2 2 3 3 3 4 4 4 4 4 4 5 6 6 6 6 6 6 7 7 7 5 3 3 4 5 4 3 2 1 1 2 2 1
2 1 1 1 1 1 1 2 2 3 3 3 4 4 4 5 5 6 6 6 6 6 7 7 6 5 5 4 4 6 4 3 2 1 1 1 1 2
1 1 1 1 1 1 0 0 1 2 2 3 3 4 4 4 4 5 6 7 6 6 7 6 6 6 4 3 3 2 5 3 3 2 1 1 1 1
2 3 2 2 2 2 1 1 0 1 1 2 2 3 3 3 4 4 5 6 6 6 7 7 8 10 6 4 3 1 1 3 2 1 2 1 1 1
5 5 4 4 3 3 2 2 1 1 0 1 1 2 2 3 4 5 5 5 5 6 7 7 9 8 5 4 4 3 2 0 1 2 3 2 1 2
6 6 5 5 4 3 3 3 3 2 1 1 0 1 2 2 3 3 4 4 5 6 6 7 7 7 6 6 6 5 5 3 1 1 0 2 4 5
Wind_Direction
358 4 7 358 358 343 329 297 262 275 274 274 275 278 272 257 249 245 277 298 309 336 336 336 330 210 173 164 159 156 158 160 163 167 171 177 183 184
343 2 7 355 357 359 345 318 269 245 264 263 254 266 262 250 211 194 244 243 194 67 51 58 80 109 126 133 139 143 147 153 159 165 173 178 178 180
349 5 14 12 15 14 4 343 312 276 266 272 249 256 247 245 196 160 182 191 165 125 103 99 103 111 119 126 133 140 147 154 160 167 172 172 175 182
13 23 20 22 23 16 12 357 334 305 279 286 287 276 260 246 180 166 172 178 154 138 126 116 115 118 122 127 134 141 148 156 163 168 172 176 182 188
32 30 21 22 19 8 7 2 342 327 298 294 304 305 297 360 140 155 158 141 158 149 139 131 130 130 133 137 143 150 155 161 168 174 179 185 190 195
33 29 24 24 18 8 11 6 360 2 359 346 332 330 325 332 153 164 166 158 169 164 151 148 148 145 149 153 157 162 167 172 178 183 189 195 199 203
32 28 30 33 30 24 22 14 15 17 15 15 10 5 5 356 334 210 191 161 164 157 160 168 165 170 175 178 179 180 183 188 192 196 200 204 209 212
34 21 27 28 19 24 30 36 35 30 24 24 20 16 6 352 338 329 167 169 187 167 167 175 180 193 196 199 198 196 198 202 206 209 212 214 218 221
40 31 30 20 18 17 23 34 36 34 33 29 30 16 358 349 348 357 3 6 18 109 140 163 183 208 207 212 208 209 211 213 215 217 219 221 223 225
42 33 30 21 15 14 32 37 33 28 25 31 27 5 353 346 351 347 343 8 38 36 45 110 155 217 210 213 214 215 220 224 226 228 228 228 229 230
35 32 29 24 10 25 38 35 30 20 20 34 36 31 27 23 16 20 21 25 24 14 14 31 37 305 263 242 216 213 218 223 227 230 232 232 231 231
28 25 25 21 17 29 39 36 30 6 5 18 21 20 22 24 26 29 23 28 17 13 3 6 7 360 328 309 260 207 210 219 225 231 234 234 227 225
40 18 7 11 27 37 44 41 20 3 20 30 28 20 18 16 14 14 12 13 13 356 339 348 360 3 337 317 308 267 229 226 220 227 231 231 220 213
43 3 357 20 38 42 43 39 42 46 46 42 38 26 17 10 358 357 2 3 356 332 322 311 306 304 315 299 295 304 261 236 227 229 222 214 221 222
36 21 31 41 46 48 44 42 44 47 50 48 36 18 359 349 353 355 3 9 20 29 23 5 323 295 252 266 286 299 305 293 245 232 212 202 207 204
29 23 39 49 51 46 40 36 38 40 47 46 25 3 358 7 11 4 359 359 3 2 6 8 356 324 293 282 272 286 295 315 349 165 120 95 82 109
29 38 37 37 42 38 34 34 32 33 34 25 23 22 19 19 14 5 3 3 10 358 354 354 345 334 316 326 338 353 348 343 333 72 116 108 83 60
79 63 53 53 56 43 34 32 31 30 23 24 28 26 22 20 17 15 15 16 13 3 358 353 350 355 12 73 39 15 7 351 349 323 189 149 146 169
87 103 103 92 86 63 46 37 30 20 15 29 32 27 23 20 18 16 13 12 8 3 359 356 359 3 358 349 14 42 18 350 342 338 292 239 188 196
170 194 197 191 186 173 135 70 33 23 28 30 31 27 23 21 19 13 10 5 359 355 356 359 0 352 331 314 317 353 32 16 351 338 341 345 343 351
214 219 219 212 208 206 198 185 167 25 27 26 30 24 16 14 13 8 4 1 0 357 354 350 334 319 293 268 273 287 50 50 39 357 350 325 292 259
220 220 219 217 212 207 202 201 204 201 205 21 24 19 13 10 7 3 2 1 360 356 349 344 342 343 349 340 329 319 311 346 54 80 85 61 341 304
220 218 218 213 209 204 202 208 214 217 220 236 290 344 358 0 358 360 359 359 355 358 357 356 358 359 355 350 344 338 342 339 312 269 237 8 339 308